Zurück zum Katalog

STARLINK-30374

AktivKommunikationVLEO
NORAD 57809·PAYLOAD·🇺🇸 United States

Gestartet Sep 9, 2023 von Cape Canaveral Space Force Station

Loading…

Nächste Überflüge (nächste 24 Stunden)

TLE

AktuellSource: CelesTrak SupGP

Epoche: Sep 15, 2026, 01:47 UTC

1 57809C 23138B   26258.07479167 -.00041418  00000+0 -14992-2 0  2584
2 57809  42.9988 244.3818 0001215 266.2940 154.2343 15.27620258    10

Verfolge STARLINK-30374 in Echtzeit mit AllMySat

Download on the App Store